Location: Härggis
(46.9540°N, 8.4897°E)
Time: 03:06:19
(UTC+00:00)

ERBS - Pass Details

Date: 27 May 2022
Orbit: 359 x 376 km, 57.0° (Epoch: 26 June)

Event Time Altitude Azimuth Distance (km) Brightness Sun altitude
Exits shadow 00:53:02 56° 296° (WNW) 445 2.3 -18.8°
Maximum altitude 00:53:18 60° 325° (NW) 430 2.4 -18.8°
Drops below altitude 10° 00:56:20 10° 46° (NE) 1,378 5.9 -18.6°
Sets 00:58:24 0° 50° (NE) 2,238 7.1 -18.5°
